YAOGAN-30 Q (44451 NORAD) Tracking and Keplerian Element Data

This shows tracking and keplerian element data for the satellite.

Feedback or suggestion? Click here.




ElementValue
Catalog44451
NameYAOGAN-30 Q
Epoch Orbit430
Epoch Day236.20597789
Epoch Year2019
RAAN164.5493
Inclination34.9964
Eccentricity0.0001371
Argument of Perigee233.4131
Mean Anonmoly126.6453
Mean Motion14.89664942
Decay Rate1.11E-06
L11 44451U 19045C 19236.20597789 .00000111 00000-0 14177-4 0 9992
L22 44451 34.9964 164.5493 0001371 233.4131 126.6453 14.89664942 4303

Live tracking and technical data element details for YAOGAN-30 Q (NORAD 44451). YAOGAN-30 Q can be tracked NOW for your location showing map with azimuth and elevation plus other details from your city location.

Track the satellite on the map from your city or location and see movement details for azimuth, elevation, latitude, longitude, range, height, and movement on the map or in text.







IsCatalogInMostPopularTable: catalog: 44451, numindb: 10
Update: records affected: 1



GetName: 44451 YAOGAN-30 Q

Hit Count: updated at: Wed, 23 Oct 2019 00:16:29 GMT